[Date Prev][Date Next][Thread Prev][Thread Next] - [Date Index][Thread Index][Author Index]

2 Line ISS Keps 10-16



ISS
1 25544U 98067A   06288.96394316  .00009710  00000-0  62451-4 0  8678
2 25544 051.6353 285.2224 0013264 100.8545 348.1702 15.76908098452211
----
Sent via sarex@amsat.org. Opinions expressed are those of the author.
Not an AMSAT member? Join now to support the amateur satellite program!
Subscription settings: http://amsat.org/mailman/listinfo/sarex



AMSAT Top AMSAT Home